This is the latest recevied weather packets stored in our database for station/object LA5PPA-1. If no packets are shown the sender has not sent any weather packets the latest 10 day(s).
| Time | Temp. | Humidity | Pressure | Rain* | Wind** | Luminosity | Snow |
|---|---|---|---|---|---|---|---|
| 1778191310 | -1.11° C | 58% | 1022.6 hPa | 0 mm | - | - | - |
| 1778191011 | -1.67° C | 58% | 1022.4 hPa | 0 mm | - | - | - |
| 1778190710 | -1.67° C | 58% | 1022.3 hPa | 0 mm | - | - | - |
| 1778190410 | -1.67° C | 59% | 1022.3 hPa | 0 mm | - | - | - |
| 1778190111 | -1.67° C | 59% | 1022.3 hPa | 0 mm | - | - | - |
| 1778189810 | -1.67° C | 60% | 1022.2 hPa | 0 mm | - | - | - |
| 1778189510 | -1.67° C | 60% | 1022.3 hPa | 0 mm | - | - | - |
| 1778189210 | -2.22° C | 60% | 1022.2 hPa | 0 mm | - | - | - |
| 1778188910 | -2.22° C | 60% | 1022.2 hPa | 0 mm | - | - | - |
| 1778188610 | -1.67° C | 60% | 1022.2 hPa | 0 mm | - | - | - |
| 1778188311 | -1.67° C | 59% | 1022.2 hPa | 0 mm | - | - | - |
| 1778188010 | -1.67° C | 58% | 1022.1 hPa | 0 mm | - | - | - |
| 1778187710 | -1.67° C | 57% | 1022.2 hPa | 0 mm | - | - | - |
| 1778187410 | -1.67° C | 56% | 1022.2 hPa | 0 mm | - | - | - |
| 1778187110 | -1.11° C | 56% | 1022.1 hPa | 0 mm | - | - | - |
| 1778186811 | -1.11° C | 55% | 1022.1 hPa | 0 mm | - | - | - |
| 1778186511 | -1.11° C | 55% | 1021.9 hPa | 0 mm | - | - | - |
| 1778186210 | -1.11° C | 55% | 1022 hPa | 0 mm | - | - | - |
| 1778185910 | -0.56° C | 54% | 1022 hPa | 0 mm | - | - | - |
| 1778185611 | -0.56° C | 54% | 1022 hPa | 0 mm | - | - | - |
| 1778185310 | -0.56° C | 52% | 1021.9 hPa | 0 mm | - | - | - |
| 1778185011 | 0° C | 51% | 1021.9 hPa | 0 mm | - | - | - |
| 1778184711 | 0° C | 50% | 1021.8 hPa | 0 mm | - | - | - |
| 1778184411 | 0° C | 50% | 1021.8 hPa | 0 mm | - | - | - |
| 1778184110 | 0.56° C | 49% | 1021.7 hPa | 0 mm | - | - | - |
* Rain latest hour (hover to see other rain measurements)
** Current wind speed in m/s (hover to see current wind gust speed)